www.pogodaiklimat.ru
ПОГОДА в Байсуне

Архив погоды в Байсуне (Сухрандарьинская область, Узбекистан)

Время
и дата
22:30 27.05
22:40 27.05
22:50 27.05
23:00 27.05
23:10 27.05
23:20 27.05
23:30 27.05
23:50 27.05
00:00 28.05
00:20 28.05
00:40 28.05
01:00 28.05
01:10 28.05
01:40 28.05
01:50 28.05
02:00 28.05
02:10 28.05
02:20 28.05
02:30 28.05
02:40 28.05
02:50 28.05
03:00 28.05
03:10 28.05
03:20 28.05
03:40 28.05
03:50 28.05
04:00 28.05
04:10 28.05
04:20 28.05
04:40 28.05
04:50 28.05
05:00 28.05
05:20 28.05
05:40 28.05
05:50 28.05
06:00 28.05
06:10 28.05
06:20 28.05
06:30 28.05
06:40 28.05
06:50 28.05
07:10 28.05
07:20 28.05
07:40 28.05
07:50 28.05
08:00 28.05
08:10 28.05
08:30 28.05
08:50 28.05
09:00 28.05
09:10 28.05
09:30 28.05
09:40 28.05
10:00 28.05
10:10 28.05
10:20 28.05
10:30 28.05
10:40 28.05
10:50 28.05
11:10 28.05
11:20 28.05
11:30 28.05
11:50 28.05
12:00 28.05
12:20 28.05
12:30 28.05
13:00 28.05
13:20 28.05
13:40 28.05
14:00 28.05
14:30 28.05
14:40 28.05
14:50 28.05
15:00 28.05
15:10 28.05
15:30 28.05
15:40 28.05
15:50 28.05
16:10 28.05
16:20 28.05
16:30 28.05
16:50 28.05
17:10 28.05
17:20 28.05
17:50 28.05
18:00 28.05
18:10 28.05
18:20 28.05
18:30 28.05
18:40 28.05
18:50 28.05
19:00 28.05
19:10 28.05
19:20 28.05
19:30 28.05
19:50 28.05
20:00 28.05
20:10 28.05
20:20 28.05
20:30 28.05
20:50 28.05
21:00 28.05
21:10 28.05
21:30 28.05
21:40 28.05
21:50 28.05
22:10 28.05
22:30 28.05
22:40 28.05
22:50 28.05
23:00 28.05
23:20 28.05
23:40 28.05
00:00 29.05
00:20 29.05
00:30 29.05
00:40 29.05
01:10 29.05
01:20 29.05
01:30 29.05
01:50 29.05
02:10 29.05
02:20 29.05
02:40 29.05
03:00 29.05
03:10 29.05
03:20 29.05
03:30 29.05
03:40 29.05
03:50 29.05
04:00 29.05
04:10 29.05
04:20 29.05
04:40 29.05
04:50 29.05
05:10 29.05
05:20 29.05
05:30 29.05
05:50 29.05
06:00 29.05
06:20 29.05
06:40 29.05
07:00 29.05
07:10 29.05
Ветер
(напр.,м/с)
Видимость Явления Солнечная радиация
(Вт/м2)
Т
(С)
Тd
(С)
f
(%)
Тe
(С)
Тes
(С)
Комфортность P
(гПа)
Po
(гПа)
Тmin
(С)
Tmax
(С)
R
(мм)
СЗ 1.5
{2.6}
+17.3 +17.3 100 +18 +18 1017.4 876.5 +17.5 +17.3
СЗ 1.5
{2.9}
+17.3 +17.3 100 +18 +18 1017.4 876.5 +17.4 +17.3
С 1.0
{1.9}
+16.9 +16.9 100 +18 +18 1017.3 876.4 +17.3 +16.9
С 1.0
{2.5}
+16.8 +16.8 100 +18 +18 1017.4 876.5 +16.9 +16.7
СЗ 1.0
{2.7}
+16.7 +16.7 100 +18 +18 1017.4 876.5 +16.8 +16.7
С 1.1
{2.6}
+16.4 +16.4 100 +17 +17 1017.4 876.5 +16.7 +16.4
СЗ 0.8
{2.2}
+16.2 +16.2 100 +17 +17 1017.4 876.5 +16.4 +16.1
СЗ 1.2
{2.9}
+16.3 +16.3 100 +17 +17 1017.5 876.6 +16.6 +16.3
СЗ 1.2
{2.5}
+16.2 +16.2 100 +17 +17 1017.4 876.5 +16.3 +16.2
СЗ 2.0
{2.8}
+16.2 +16.2 100 +16 +16 1017.4 876.5 +16.2 +16.0
СЗ 2.4
{3.6}
+16.5 +16.5 100 +16 +16 1017.4 876.5 +16.5 +16.4
СЗ 2.1
{3.6}
+16.7 +16.7 100 +17 +17 1017.4 876.5 +16.7 +16.5
СЗ 2.4
{3.4}
+16.7 +16.7 100 +17 +17 1017.3 876.4 +16.7 +16.7
СЗ 2.3
{3.2}
+16.7 +16.7 100 +17 +17 1017.0 876.2 +16.8 +16.6
СЗ 2.2
{3.3}
+16.6 +16.6 100 +17 +17 1016.9 876.1 +16.8 +16.6
СЗ 1.6
{2.9}
+16.1 +16.1 100 +16 +16 1016.9 876.1 +16.6 +16.2
СЗ 1.6
{2.6}
+15.9 +15.9 100 +16 +16 1016.8 876.0 +16.1 +15.9
СЗ 1.8
{2.8}
+15.9 +15.9 100 +16 +16 1016.8 876.0 +15.9 +15.9
СЗ 1.1
{2.1}
+15.4 +15.4 100 +16 +16 1016.9 876.1 +15.9 +15.4
СЗ 1.5
{2.4}
+15.3 +15.3 100 +15 +15 1016.9 876.1 +15.4 +15.2
СЗ 1.8
{2.8}
+15.6 +15.6 100 +16 +16 1016.8 876.0 +15.6 +15.3
СЗ 1.5
{2.8}
+15.6 +15.6 100 +16 +16 1016.8 876.0 +15.7 +15.6
СЗ 1.8
{3.0}
+15.9 +15.9 100 +16 +16 1016.8 876.0 +15.9 +15.6
СЗ 1.8
{2.9}
+15.8 +15.8 100 +16 +16 1016.8 876.0 +15.9 +15.8
СЗ 1.2
{2.2}
+16.0 +16.0 100 +16 +16 1016.8 876.0 +16.1 +15.9
СЗ 1.9
{2.8}
+16.1 +16.1 100 +16 +16 1016.8 876.0 +16.2 +16.0
СЗ 1.6
{3.3}
+16.3 +16.3 100 +17 +17 1016.8 876.0 +16.4 +16.1
СЗ 1.0
{1.9}
+15.8 +15.8 100 +16 +16 1016.9 876.1 +16.3 +15.8
СЗ 2.0
{3.1}
+15.9 +15.9 100 +16 +16 1016.9 876.1 +15.9 +15.7
СЗ 2.0
{3.3}
+16.1 +16.1 100 +16 +16 1016.9 876.1 +16.1 +16.0
СЗ 1.0
{2.4}
+15.0 +15.0 100 +15 +15 1016.9 876.1 +16.1 +15.7
СЗ 0.6
{2.6}
+15.0 +15.0 100 +16 +16 1017.0 876.2 +15.7 +15.0
СЗ 1.2
{2.1}
+15.0 +15.0 100 +15 +15 1017.2 876.3 +15.1 +14.9
СЗ 2.1
{3.0}
+15.0 +15.0 100 +15 +15 1017.2 876.3 +15.1 +14.8
СЗ 2.2
{2.8}
+15.2 +15.2 100 +15 +15 1017.3 876.4 +15.2 +15.0
СЗ 2.1
{3.1}
+15.4 +15.4 100 +15 +15 1017.3 876.4 +15.4 +15.2
СЗ 2.5
{3.6}
+16.1 +16.1 100 +16 +16 1017.3 876.4 +16.1 +15.4
СЗ 2.2
{3.2}
+16.6 +16.6 100 +17 +17 1017.4 876.5 +16.6 +16.1
СЗ 2.2
{3.3}
+17.0 +17.0 100 +17 +17 1017.4 876.5 +17.0 +16.6
СЗ 1.7
{3.0}
+17.4 +17.4 100 +18 +18 1017.4 876.5 +17.4 +17.0
СЗ 2.0
{3.1}
+17.7 +17.7 100 +18 +18 1017.4 876.5 +17.7 +17.4
СЗ 1.5
{2.3}
+19.0 +19.0 100 +22 +22 комфорт 1017.3 876.4 +18.9 +18.3
СЗ 1.2
{2.4}
+19.8 +19.8 100 +24 +24 комфорт 1017.4 876.5 +19.8 +19.0
СЗ 0.7
{1.7}
+21.6 +21.6 100 +28 +28 очень
душно
1017.4 876.5 +21.6 +20.7
З 1.0
{1.7}
+22.2 +22.2 100 +30 +30 очень
душно
1017.5 876.6 +22.2 +21.6
З 0.7
{1.8}
+22.6 +22.6 100 +31 +31 очень
душно
1017.5 876.6 +22.6 +22.2
Ю 1.0
{1.8}
+23.1 +23.1 100 +32 +32 очень
душно
1017.6 876.7 +23.1 +22.6
ЮВ 1.1
{3.5}
+23.8 +23.8 100 +32 +32 очень
душно
1017.6 876.7 +24.0 +23.5
В 1.1
{3.6}
+24.0 +24.0 100 +33 +33 очень
душно
1017.7 876.8 +24.0 +23.7
ЮВ 1.5
{3.6}
+24.4 +24.4 100 +34 +34 очень
душно
1017.8 876.9 +24.4 +24.0
ЮВ 1.8
{4.2}
+24.2 +24.2 100 +33 +33 очень
душно
1017.8 876.9 +24.5 +24.1
Ю 1.5
{3.1}
+24.2 +24.2 100 +33 +33 очень
душно
1017.8 876.9 +24.3 +24.0
ЮВ 1.0
{2.8}
+24.5 +24.5 100 +34 +34 очень
душно
1017.8 876.9 +24.6 +24.2
ЮВ 1.6
{3.6}
+24.3 +24.3 100 +34 +34 очень
душно
1017.8 876.9 +24.9 +24.3
СВ 1.6
{3.0}
+24.8 +24.8 100 +35 +35 очень
душно
1017.8 876.9 +24.8 +24.3
В 1.5
{4.3}
+25.6 +25.6 100 +37 +37 очень
душно
1017.7 876.8 +25.6 +24.8
Ю 1.6
{3.8}
+25.5 +25.5 100 +37 +37 очень
душно
1017.8 876.9 +25.8 +25.5
ЮВ 1.6
{3.4}
+25.0 +25.0 100 +36 +36 очень
душно
1017.8 876.9 +25.5 +24.9
ЮВ 1.8
{4.1}
+25.6 +25.6 100 +37 +37 очень
душно
1017.8 876.9 +25.6 +25.0
Ю 2.4
{4.9}
+25.8 +25.8 100 +38 +38 очень
душно
1017.9 877.0 +26.1 +25.8
Ю 2.2
{4.8}
+25.9 +25.9 100 +38 +38 очень
душно
1017.9 877.0 +26.2 +25.8
Ю 1.8
{3.9}
+26.1 +26.1 100 +39 +39 очень
душно
1017.9 877.0 +26.0 +25.5
ЮВ 1.9
{4.6}
+26.8 +26.8 100 +42 +42 очень
душно
1017.7 876.8 +26.8 +26.4
Ю 1.9
{5.2}
+27.1 +27.1 100 +43 +43 очень
душно
1017.7 876.8 +27.1 +26.8
Ю 1.6
{3.7}
+26.5 +26.5 100 +40 +40 очень
душно
1017.6 876.7 +27.1 +26.3
Ю 2.5
{6.5}
+26.3 +26.3 100 +40 +40 очень
душно
1017.6 876.7 +27.1 +26.4
Ю 3.0
{6.2}
+25.9 +25.9 100 +38 +38 очень
душно
1017.4 876.5 +26.9 +25.9
Ю 2.4
{5.8}
+26.8 +26.8 100 +42 +42 очень
душно
1017.3 876.4 +26.9 +26.4
ЮВ 1.8
{4.7}
+25.4 +25.4 100 +37 +37 очень
душно
1017.2 876.3 +26.0 +25.4
Ю 3.3
{7.4}
+27.1 +27.1 100 +43 +43 очень
душно
1016.9 876.1 +27.2 +26.9
З 2.5
{6.4}
+27.6 +27.6 100 +45 +45 очень
душно
1016.8 876.0 +28.0 +27.5
ЮЗ 2.6
{8.2}
+27.8 +27.8 100 +45 +45 очень
душно
1016.7 875.9 +27.8 +27.5
ЮЗ 2.8
{8.2}
+27.5 +27.5 100 +44 +44 очень
душно
1016.7 875.9 +27.8 +27.4
ЮЗ 3.2
{7.4}
+27.5 +27.5 100 +44 +44 очень
душно
1016.6 875.8 +27.8 +27.5
З 2.6
{7.6}
+27.5 +27.5 100 +44 +44 очень
душно
1016.6 875.8 +27.6 +27.4
ЮЗ 2.6
{6.8}
+27.6 +27.6 100 +45 +45 очень
душно
1016.5 875.7 +27.6 +27.3
ЮЗ 2.8
{6.3}
+27.4 +27.4 100 +44 +44 очень
душно
1016.5 875.7 +27.6 +27.4
З 2.6
{6.5}
+27.2 +27.2 100 +43 +43 очень
душно
1016.5 875.7 +27.5 +27.2
ЮЗ 2.8
{7.4}
+27.0 +27.0 100 +42 +42 очень
душно
1016.5 875.7 +27.4 +27.0
З 3.2
{7.3}
+26.6 +26.6 100 +41 +41 очень
душно
1016.5 875.7 +27.0 +26.6
ЮЗ 2.4
{7.3}
+27.0 +27.0 100 +42 +42 очень
душно
1016.5 875.7 +27.0 +26.6
З 2.2
{5.8}
+26.7 +26.7 100 +41 +41 очень
душно
1016.4 875.6 +26.7 +26.5
З 2.3
{6.4}
+26.3 +26.3 100 +40 +40 очень
душно
1016.4 875.6 +26.6 +26.3
З 2.1
{5.0}
+26.0 +26.0 100 +39 +39 очень
душно
1016.2 875.5 +26.3 +26.0
СЗ 1.7
{3.5}
+26.0 +26.0 100 +39 +39 очень
душно
1016.2 875.5 +26.0 +25.8
СЗ 2.2
{5.0}
+25.6 +25.6 100 +37 +37 очень
душно
1016.2 875.5 +26.0 +25.5
СЗ 2.3
{5.3}
+25.1 +25.1 100 +36 +36 очень
душно
1016.2 875.5 +25.6 +25.1
СЗ 1.3
{3.2}
+24.9 +24.9 100 +35 +35 очень
душно
1016.2 875.5 +25.1 +24.9
СЗ 1.8
{5.4}
+24.2 +24.2 100 +33 +33 очень
душно
1016.2 875.5 +24.9 +24.3
СЗ 1.4
{4.3}
+23.4 +23.4 100 +33 +33 очень
душно
1016.2 875.5 +24.2 +23.5
З 0.8
{2.3}
+22.6 +22.6 100 +31 +31 очень
душно
1016.1 875.4 +23.4 +22.6
ЮЗ 1.1
{3.4}
+22.1 +22.1 100 +29 +29 очень
душно
1016.1 875.4 +22.6 +22.1
З 0.8
{1.7}
+21.1 +21.1 100 +26 +26 душно 1016.1 875.4 +22.1 +21.1
З 0.5
{1.1}
+20.0 +20.0 100 +25 +25 комфорт 1016.0 875.3 +21.1 +20.0
С 0.7
{1.2}
+19.2 +19.2 100 +23 +23 комфорт 1016.1 875.4 +20.0 +19.2
С 0.7
{1.6}
+18.1 +18.1 100 +20 +20 1016.2 875.5 +18.7 +18.1
СЗ 1.0
{2.5}
+17.8 +17.8 100 +19 +19 1016.2 875.5 +18.1 +17.8
С 1.0
{2.0}
+17.8 +17.8 100 +19 +19 1016.4 875.6 +17.9 +17.6
СВ 1.4
{3.8}
+18.3 +18.3 100 +20 +20 1016.5 875.7 +18.3 +17.5
СВ 1.6
{3.3}
+19.4 +19.4 100 +23 +23 комфорт 1016.6 875.8 +19.4 +18.3
С 1.3
{3.5}
+19.7 +19.7 100 +24 +24 комфорт 1016.7 875.9 +19.9 +19.6
С 1.4
{4.2}
+19.9 +19.9 100 +24 +24 комфорт 1016.9 876.1 +19.9 +19.6
С 1.3
{3.4}
+19.9 +19.9 100 +24 +24 комфорт 1016.9 876.1 +20.1 +19.9
СЗ 0.7
{1.3}
+18.4 +18.4 100 +21 +21 комфорт 1017.0 876.2 +19.4 +18.4
СЗ 1.2
{1.8}
+17.5 +17.5 100 +18 +18 1017.0 876.2 +18.4 +17.5
СЗ 1.8
{2.8}
+17.5 +17.5 100 +18 +18 1017.2 876.3 +17.5 +17.3
СЗ 1.6
{2.9}
+16.8 +16.8 100 +17 +17 1017.2 876.3 +17.3 +16.8
СЗ 2.3
{4.2}
+16.9 +16.9 100 +17 +17 1017.2 876.3 +16.9 +16.7
СЗ 2.2
{3.5}
+16.8 +16.8 100 +17 +17 1017.2 876.3 +16.9 +16.8
СЗ 1.9
{3.8}
+16.7 +16.7 100 +17 +17 1017.0 876.2 +16.8 +16.7
СЗ 2.0
{3.3}
+16.5 +16.5 100 +17 +17 1017.0 876.2 +16.7 +16.5
СЗ 1.8
{3.7}
+16.5 +16.5 100 +17 +17 1017.0 876.2 +16.6 +16.5
СЗ 2.0
{3.5}
+16.3 +16.3 100 +16 +16 1016.9 876.1 +16.2 +16.1
СЗ 2.2
{3.4}
+16.2 +16.2 100 +16 +16 1016.9 876.1 +16.2 +16.1
СЗ 2.5
{3.6}
+16.3 +16.3 100 +16 +16 1016.8 876.0 +16.3 +16.2
СЗ 1.6
{3.2}
+16.1 +16.1 100 +16 +16 1016.8 876.0 +16.3 +16.1
СЗ 1.6
{3.0}
+15.8 +15.8 100 +16 +16 1016.8 876.0 +16.1 +15.8
СЗ 1.6
{2.6}
+15.4 +15.4 100 +15 +15 1016.8 876.0 +15.7 +15.4
СЗ 1.1
{1.7}
+14.9 +14.9 100 +15 +15 1016.7 875.9 +15.4 +14.9
СЗ 1.1
{2.0}
+14.6 +14.6 100 +15 +15 1016.7 875.9 +14.9 +14.6
СЗ 1.8
{2.3}
+14.3 +14.3 100 +14 +14 1016.7 875.9 +14.4 +14.3
СЗ 1.9
{2.5}
+14.2 +14.2 100 +14 +14 1016.7 875.9 +14.3 +14.2
СЗ 1.6
{2.3}
+13.9 +13.9 100 +13 +13 1016.7 875.9 +14.2 +13.9
СЗ 1.8
{2.5}
+13.8 +13.8 100 +13 +13 1016.7 875.9 +13.9 +13.8
СЗ 1.7
{2.4}
+13.8 +13.8 100 +13 +13 1016.7 875.9 +14.0 +13.8
СЗ 2.0
{2.8}
+14.1 +14.1 100 +13 +13 1016.7 875.9 +14.1 +13.7
СЗ 1.7
{2.7}
+14.0 +14.0 100 +14 +14 1016.6 875.8 +14.1 +14.0
СЗ 1.9
{2.5}
+14.0 +14.0 100 +13 +13 1016.6 875.8 +14.0 +14.0
СЗ 2.1
{3.0}
+14.1 +14.1 100 +13 +13 1016.6 875.8 +14.1 +13.9
СЗ 2.0
{3.1}
+14.3 +14.3 100 +14 +14 1016.6 875.8 +14.3 +14.1
СЗ 2.2
{3.2}
+14.4 +14.4 100 +14 +14 1016.6 875.8 +14.4 +14.3
СЗ 2.3
{3.5}
+14.5 +14.5 100 +14 +14 1016.6 875.8 +14.5 +14.3
СЗ 2.1
{3.4}
+14.6 +14.6 100 +14 +14 1016.5 875.7 +14.7 +14.5
СЗ 2.0
{3.0}
+14.0 +14.0 100 +13 +13 1016.6 875.8 +14.2 +14.0
СЗ 1.9
{3.1}
+13.9 +13.9 100 +13 +13 1016.5 875.7 +14.2 +14.0
СЗ 1.7
{3.4}
+14.0 +14.0 100 +14 +14 1016.6 875.8 +14.0 +13.9
СЗ 1.5
{2.8}
+14.0 +14.0 100 +14 +14 1016.6 875.8 +14.0 +14.0
СЗ 1.4
{2.8}
+14.0 +14.0 100 +14 +14 1016.6 875.8 +14.0 +13.9
СЗ 2.0
{3.3}
+14.5 +14.5 100 +14 +14 1016.8 876.0 +14.5 +14.0
СЗ 1.7
{2.6}
+14.5 +14.5 100 +14 +14 1016.8 876.0 +14.6 +14.5
СЗ 1.7
{3.2}
+15.3 +15.3 100 +15 +15 1016.9 876.1 +15.3 +14.7
СЗ 1.8
{2.6}
+16.2 +16.2 100 +16 +16 1017.0 876.2 +16.2 +15.8
С 0.5
{1.1}
+17.2 +17.2 100 +19 +19 1017.0 876.2 +17.2 +16.7
В 1.2
{2.2}
+18.3 +18.3 100 +20 +20 1017.0 876.2 +18.3 +17.2
Местоположение метеостанции Байсун (Сухрандарьинская область, Узбекистан): широта 38.21 долгота 67.20 высота над уровнем моря 0 м.
В архиве по умолчанию представлена погода в Байсуне за последние 1-2 суток. Обновление информации о фактической погоде в базе происходит ежечасно! Архивные данные за месяц целиком и за предыдущие месяцы Вы можете получить, выбрав интересующий диапазон дат из раскрывающегося списка и нажав кнопку "Ввод!".
*Определитесь, кто Вы:
Внимание! Время в таблицах - местное (без учета летнего времени). Для получения всемирного времени необходимо вычесть поправку, которая равна 5 ч.
Смотрите также архив погоды на ближайших метеорологических станциях:
Партнеры нашего сайта:      
Пояснения к столбцам:
  • Ветер - указаны скорость ветра в м/с - средняя за 10 мин, порывы в срок и между сроками (в фигурных скобках) и направление, откуда дует ветер: С - северный,
  • СВ - северо-восточный, В - восточный, ЮВ - юго-восточный, Ю - южный, ЮЗ - юго-западный, З - западный, СЗ - северо-западный.
  • Видимость - горизонтальная дальность видимости в метрах или километрах. При видимости от 1 до 10 км при отсутствии осадков обычно наблюдается дымка, при ухудшении видимости до 1 км и менее - туман. В сухую погоду видимость может ухудшаться дымом, пылью или мглою.
  • Явления - указаны атмосферные явления, наблюдавшиеся в срок или в последний час перед сроком.
  • Солнечная радиация - мощность потока солнечного излучения на поверхность земли и предметов в Вт/м2.
  • T - Температура воздуха - температура, измеренная на высоте 2 м над землей.
  • Td - Температура точки росы - температура, при понижении до которой содержащийся в воздухе водяной пар достигнет насыщения.
  • f - Относительная влажность воздуха - влажноcть воздуха, измеренная на высоте 2 м над землей.
  • Te - Эффективная температура - температура, которую ощущает одетый по сезону человек в тени. Характеристика душности погоды. При расчете учитывается влияние влажности воздуха и скорости ветра на теплоощущения человека.
  • Tes - Эффективная температура на солнце - температура, которую ощущает человек, с поправкой на солнечный нагрев. Характеристика знойности погоды. Зависит от высоты солнца над горизонтом, облачности и скорости ветра. Ночью, в пасмурную погоду, а также при ветре 12 м/с и более поправка равна нулю.
  • P - Атмосферное давление - приведенное к уровню моря атмосферное давление.
  • Po - Атмосферное давление - измеренное на уровне метеостанции атмосферное давление.
  • Tmin - Минимальная температура - минимум температуры воздуха на высоте 2 м над землей.
  • Tmax - Максимальная температура - максимум температуры воздуха на высоте 2 м над землей.
  • R - Количество осадков - Количество выпавших осадков за период времени, мм. При наведении курсора мыши на число - период времени, за который выпало указанное количество осадков.